Showing default

COSMOS 1560, 14999

Orbit data source: Space-Track

COSMOS 1560, 14999 is a payload satellite owned by GUKOS (CIS) in LEO that was launched on Mon, 28 May 1984 UTC via a KOSMOS 11K65M launch vehicle from the Plesetsk Missile And Space Complex (PKMTR). Payload-class satellites include a variety of spacecraft equipped with specific instruments for various scientific and technological missions. These include communications satellites like Starlink; space stations such as the ISS; scientific satellites like the Hubble; Earth observation satellites from companies like Planet Labs, Umbra, and HawkEye 360; GPS; miniature CubeSats for education and research; and military/defense satellites.

Loading next visibility...
Identifier
14999, 1984-052B
Orbit
LEO
Country
Flag of CISCIS
Related business
Manufacturer
NPO PM
Mission
Defense Communications
Bus & Motor
STRELA-1 11F625, Unknown motor
Mass
60 kg wet, 60 kg dry
Launch date (UTC)
1984-05-28 (41 years ago)
Launch vehicle
KOSMOS 11K65M
Launch site
Plesetsk Missile And Space Complex (PKMTR)
Object type
Payload
Rocket body
Debris
Shape & HBR
Sphere, 0.4 m
Radar Cross Section
0.588 m², Medium (>0.1 m² and < 1m²)

Expand to show TLE details & history
Last TLE update: 8 hours ago

TLE from 8 hours ago
0 COSMOS 1560
1 14999U 84052B   25258.62576747 -.00000010  00000-0  37138-4 0  9995
2 14999  74.0090 104.6454 0013302  67.9404 349.0371 12.46113101878636
Epoch: 2025-09-15T15:01Z
TLE epoch observation values (Epoch: 2025-09-15T15:01:06.309Z)
Latitude
53.7814°
Longitude
-92.54331°
Altitude
1,478.952 km
Speed
7.134 km/s
True Right ascension
08h 30m 14s
True Declination
53° 37' 57"
Sunlit
Object was in daylight at epoch
Visualization orbit readout
Latitude
Unknown
Longitude
Unknown
Altitude
Unknown
Speed
Unknown
Apparent Right ascension
Unknown
Apparent Declination
Unknown
Sunlit
N/A
Visualization observer readout
Local Sidereal Time
15:48:21
Azimuth
Unknown
Elevation
Unknown
Doppler factor
Unknown
Orbital elements
Apogee altitude
1,489.087 km
Perigee altitude
1,468.185 km
Semi-major axis
7,856.773 km
Eccentricity
0.00133
Inclination
74.009°
RAAN
104.6454°
Arg. of periapsis
67.9404°
True anomaly
349.00806°
Mean anomaly
349.0371°
Eccentric anomaly
349.02259°
Mean motion
3.11657 °/min
Orbital period
115.51 mins
BSTAR
0.000037138
Loading maneuver chart data...
Computing Atmospheric mass density...
Loading historical data...
Loading historical data...
Loading historical data...
Loading historical data...
Loading historical data...
Loading historical data...
Loading historical data...

Documentation

Showing up to 5 results
|